Meteo Giornale » Osservazioni meteo Stati Uniti (USA) » Crookston Fld
ore: 13:55 - Osservazioni Meteo Crookston Fld
Lat. 47° 51' N Lon. 96° 37' W Alt. 273 metri s.l.m.
27 °C
Sereno
Temp. 24 Ore
15 °C
31 °C
Ovest
24 Km/h
Dew point 12 °C
Umidità 39 %
Visibilità 10 Km
Il sole sorge alle ore 06:45
Il sole tramonta alle ore 20:07
| Data e Ora | Cielo e Fenomeni | T °C | DP °C | Um. % | Pres. hPa | Vis. km | Vento km/h | |
|---|---|---|---|---|---|---|---|---|
| Oggi h: 13:55 | Sereno | 27 | 12 | 39 | 1013 | 10 | O 24 | |
| Oggi h: 13:35 | Sereno | 27 | 13 | 42 | 1013 | 10 | O/NO 22.2 | |
| Oggi h: 13:15 | Sereno | 27 | 13 | 42 | 1014 | 10 | O 25.9 | |
| Oggi h: 12:55 | Sereno | 27 | 13 | 42 | 1013 | 10 | O/NO 22.2 | |
| Oggi h: 12:35 | Sereno | 27 | 13 | 42 | 1014 | 10 | O 25.9 | |
| Oggi h: 12:15 | Sereno | 26 | 13 | 44 | 1014 | 10 | O/NO 27.8 | |
| Oggi h: 11:55 | Sereno | 26 | 14 | 47 | 1014 | 10 | O/NO 31.5 | |
| Oggi h: 11:35 | Sereno | 26 | 14 | 47 | 1014 | 10 | O/NO 29.6 | |
| Oggi h: 11:15 | Sereno | 25 | 14 | 50 | 1014 | 10 | O 27.8 | |
| Oggi h: 10:55 | Sereno | 24 | 14 | 53 | 1014 | 10 | O 33.3 | |
| Oggi h: 10:35 | Sereno | 24 | 14 | 53 | 1014 | 10 | O 27.8 | |
| Oggi h: 10:15 | Sereno | 23 | 14 | 56 | 1014 | 10 | O 22.2 | |
| Oggi h: 09:35 | Sereno | 22 | 14 | 60 | 1014 | 10 | O/SO 16.7 | |
| Oggi h: 09:15 | Sereno | 22 | 14 | 60 | 1014 | 10 | SO 20.3 | |
| Oggi h: 08:55 | Sereno | 21 | 14 | 64 | 1013 | 10 | O 16.7 | |
| Oggi h: 08:35 | Sereno | 19 | 14 | 72 | 1013 | 10 | O 9.3 | |
| Oggi h: 08:15 | Sereno | 18 | 14 | 77 | 1013 | 10 | O 9.3 | |
| Oggi h: 07:55 | Sereno | 17 | 13 | 77 | 1014 | 10 | O/NO 13 | |
| Oggi h: 07:35 | Sereno | 16 | 13 | 82 | 1014 | 10 | O 9.3 | |
| Oggi h: 07:15 | Sereno | 15 | 12 | 82 | 1013 | 10 | O 13 | |
| Oggi h: 06:55 | Sereno | 15 | 12 | 82 | 1013 | 10 | O 13 | |
| Oggi h: 06:35 | Sereno | 16 | 12 | 77 | 1013 | 10 | O 16.7 | |
| Oggi h: 06:15 | Sereno | 17 | 13 | 77 | 1013 | 10 | O/SO 16.7 | |
| Oggi h: 05:55 | Sereno | 16 | 13 | 82 | 1012 | 10 | O 16.7 | |
| Oggi h: 05:35 | Sereno | 16 | 13 | 82 | 1012 | 10 | O/SO 16.7 | |
| Oggi h: 05:15 | Sereno | 16 | 13 | 82 | 1012 | 10 | O/SO 16.7 | |
| Oggi h: 04:55 | Sereno | 16 | 13 | 82 | 1012 | 10 | O/SO 14.8 | |
| Oggi h: 04:35 | Sereno | 16 | 13 | 82 | 1012 | 10 | O/SO 13 | |
| Oggi h: 04:15 | Sereno | 17 | 13 | 77 | 1012 | 10 | O 13 | |
| Oggi h: 03:55 | Sereno | 17 | 13 | 77 | 1012 | 10 | O/SO 16.7 | |
| Oggi h: 03:35 | Sereno | 17 | 13 | 77 | 1012 | 10 | O/SO 13 | |
| Oggi h: 03:15 | Sereno | 17 | 13 | 77 | 1012 | 10 | O/SO 14.8 | |
| Oggi h: 02:55 | Sereno | 18 | 13 | 72 | 1012 | 10 | O/SO 14.8 | |
| Oggi h: 02:35 | Sereno | 18 | 13 | 72 | 1012 | 10 | O/SO 14.8 | |
| Oggi h: 02:15 | Sereno | 19 | 13 | 68 | 1012 | 10 | O/SO 18.5 | |
| Oggi h: 01:55 | Sereno | 19 | 13 | 68 | 1011 | 10 | O/SO 14.8 | |
| Oggi h: 01:35 | Sereno | 17 | 13 | 77 | 1011 | 10 | O/SO 16.7 | |
| Oggi h: 01:15 | Sereno | 17 | 13 | 77 | 1011 | 10 | SO 11.1 | |
| Oggi h: 00:55 | Sereno | 18 | 13 | 72 | 1011 | 10 | O/SO 13 | |
| Oggi h: 00:35 | Sereno | 18 | 13 | 72 | 1011 | 10 | O/SO 13 | |
| Oggi h: 00:15 | Sereno | 18 | 12 | 67 | 1011 | 10 | O 11.1 | |
| Ieri h: 23:55 | Sereno | 18 | 12 | 67 | 1011 | 10 | O/SO 13 | |
| Ieri h: 23:35 | Sereno | 18 | 12 | 67 | 1011 | 10 | O 13 | |
| Ieri h: 23:15 | Sereno | 18 | 11 | 63 | 0 | 10 | O 11.1 | |
| Ieri h: 22:55 | Sereno | 19 | 11 | 59 | 1011 | 10 | O 14.8 | |
| Ieri h: 22:35 | Sereno | 21 | 10 | 49 | 1011 | 10 | O 16.7 | |
| Ieri h: 22:15 | Sereno | 23 | 9 | 40 | 1010 | 10 | O 24 | |
| Ieri h: 21:55 | Sereno | 22 | 9 | 43 | 1010 | 10 | SO 20.3 | |
| Ieri h: 21:35 | Sereno | 22 | 9 | 43 | 1010 | 10 | SO 18.5 | |
| Ieri h: 21:15 | Sereno | 23 | 8 | 38 | 1009 | 10 | S/SO 18.5 | |
| Ieri h: 20:55 | Sereno | 24 | 8 | 35 | 1009 | 10 | SO 18.5 | |
| Ieri h: 20:35 | Sereno | 24 | 8 | 35 | 1009 | 10 | SO 20.3 | |
| Ieri h: 20:15 | Sereno | 25 | 8 | 33 | 1009 | 10 | SO 20.3 | |
| Ieri h: 19:55 | Sereno | 26 | 8 | 31 | 1009 | 10 | SO 20.3 | |
| Ieri h: 19:35 | Sereno | 27 | 8 | 30 | 1009 | 10 | SO 22.2 | |
| Ieri h: 19:15 | Sereno | 28 | 8 | 28 | 1009 | 10 | O/SO 29.6 | |
| Ieri h: 18:55 | Sereno | 29 | 9 | 28 | 1009 | 10 | O/SO 31.5 | |
| Ieri h: 18:35 | Sereno | 29 | 8 | 26 | 1009 | 10 | O/SO 38.8 | |
| Ieri h: 18:15 | Sereno | 29 | 9 | 28 | 1009 | 10 | O/SO 35.2 | |
| Ieri h: 17:55 | Sereno | 30 | 9 | 27 | 1008 | 10 | SO 40.7 | |
| Ieri h: 17:35 | Sereno | 30 | 9 | 27 | 1008 | 10 | O/SO 48.1 | |
| Ieri h: 17:15 | Sereno | 30 | 9 | 27 | 1008 | 10 | O/SO 31.5 | |
| Ieri h: 16:55 | Sereno | 30 | 9 | 27 | 1008 | 10 | O/SO 35.2 | |
| Ieri h: 16:35 | Sereno | 30 | 8 | 25 | 1008 | 10 | O/SO 37 | |
| Ieri h: 16:15 | Sereno | 31 | 8 | 23 | 1009 | 10 | O/SO 40.7 | |
| Ieri h: 15:55 | Sereno | 30 | 8 | 25 | 1009 | 10 | O/SO 44.4 | |
| Ieri h: 15:35 | Sereno | 30 | 8 | 25 | 1009 | 10 | SO 44.4 | |
| Ieri h: 15:15 | Sereno | 30 | 9 | 27 | 1009 | 10 | SO 33.3 | |
| Ieri h: 14:55 | Sereno | 30 | 9 | 27 | 1009 | 10 | O/SO 37 | |
| Ieri h: 14:35 | Sereno | 29 | 8 | 26 | 1009 | 10 | O/SO 35.2 | |



